Location: Newark
(32.3788°N, 35.6119°E)
Time: 21:10:08
(UTC+00:00)

Envisat - Visible Passes

Search period start: 16 July 2019 00:00
Search period end: 26 July 2019 00:00
Orbit: 764 x 766 km, 98.1° (Epoch: 16 July)

Date Brightness Start Highest point End Pass type
(mag) Time Alt. Az. Time Alt. Az. Time Alt. Az.
18 Jul 5.8 17:18:15 10° SW 17:21:11 15° W 17:24:07 10° WNW visible
21 Jul 5.6 17:06:10 10° SW 17:09:52 20° W 17:13:33 10° NW visible
23 Jul 6.3 17:35:19 10° W 17:35:35 10° W 17:35:51 10° W visible
